C/2009 G1 (STEREO)
Epoch 2009 Mar. 30.0 TT = JDT 2454920.5  
T 2009 Apr. 16.50683 TT                                 Nakano
q   1.1287425            (2000.0)            P               Q
z  +0.0020504      Peri.  175.44531     +0.52942349     -0.22900177
 +/-0.0000444      Node   120.63495     -0.80526186     +0.16733930
e   0.9976857      Incl.  108.31062     -0.26695339     -0.95893469
From 112 observations 2009 Apr. 9-July 20, mean residual 0".70.
   (1/a)org.= +0.002419, (1/a)fut.= +0.002514 (+/-0.000044), Q= 6.
Residuals in seconds of arc 
2009/                     090422 349  0.3-  1.0+    090502 D90  0.2+  0.1+  
090409 349  0.4+  0.6-    090422 349  1.1-  0.3+    090510 844 (2.0-  3.7+) 
090409 349  0.4+  0.4-    090422 349  1.4-  0.0     090510 844 (2.0+  1.9+) 
090409 349  0.4+  0.3-    090423 194  0.4-  0.6-    090510 844 (0.3-  3.8+) 
090409 349  0.5+  0.4-    090423 194  0.2-  0.4-    090510 844  0.1+  0.0   
090409 349  0.4+  0.2-    090423 194  0.6-  0.1+    090510 844  1.7-  0.6+  
090410 355  0.3+  0.3-    090423 194  0.6-  0.2-    090510 I21  1.9+  0.7+  
090410 349  0.1+  0.6-    090423 194  0.2-  0.6-    090510 I21  0.0   0.7+  
090410 349  0.4+  0.5-    090424 194  0.1-  0.3-    090510 I21  1.1-  0.3-  
090410 355  0.4+  0.0     090424 194  0.3-  0.5-    090510 D90  1.1-  0.2+  
090410 D90  0.5+  0.7+    090424 194  0.7-  0.0     090510 D90  0.1+  0.3+  
090410 355  0.2+  0.2+    090426 194  0.1-  0.1-    090510 D90  0.0   0.3+  
090410 349  0.4+  0.3-    090426 194  0.3-  0.6-    090510 D90  0.1-  0.2+  
090410 349  0.3+  0.2-    090426 194  0.1+  0.1-    090516 467  1.2+  1.3+  
090410 D90  0.1+  0.2+    090426 349  1.1-  0.2-    090516 467  1.0+  0.0   
090410 355  0.1+  0.1-    090426 349  1.1-  0.3-    090516 467  0.9+  0.2+  
090410 355  0.1-  0.4-    090426 349  1.1-  0.0     090603 D25  0.6+  0.2+  
090410 D90  0.1-  0.4+    090426 349  0.8-  0.1-    090603 D25  0.5+  0.1-  
090410 900  0.2-  0.3-    090426 372  0.6+  0.4+    090603 D25  0.2+  0.0   
090410 D90  0.4+  0.2+    090426 372  0.8-  0.2+    090607 D90  0.5+  0.7-  
090410 900  0.1-  0.2-    090426 372  0.5-  0.1-    090607 D90  0.7+  1.0-  
090410 372  0.1-  0.7-    090427 349  0.4+  0.2+    090607 D90  0.9+  1.1+  
090410 372  0.1-  0.2+    090427 349  0.2+  0.4+    090607 D90  1.1-  0.4+  
090410 372  0.3-  0.1-    090427 349  0.1+  0.3+    090607 D90  0.9+  0.5+  
090413 204  0.7+  1.5+    090427 349  0.0   0.1+    090612 D25 (4.1+  2.9-) 
090413 204  1.7+  0.3-    090428 349  0.0   0.6-    090612 D25 (2.8+  1.8-) 
090413 204  1.4+  0.8-    090428 349  0.3-  0.3-    090612 D25 (6.0+  3.8-) 
090414 204  0.3-  0.1+    090428 349  0.2-  0.5-    090704 322  0.9-  1.4-  
090414 204  0.4+  0.4+    090428 349  0.0   0.8-    090704 322  0.9-  1.8-  
090414 204  0.4+  0.2+    090428 900  1.9+  1.0+    090704 322 (1.0+  4.2-) 
090414 E94  1.3-  0.3-    090428 900  0.6+  1.9+    090704 322 (1.7+  2.9-) 
090414 E94  0.7+  0.8-    090428 367 (0.2+  2.1-)   090706 E16  0.6-  0.5+  
090414 E94 (2.4-  0.1-)   090428 367  0.9+  0.7-    090706 E16  0.2+  0.3+  
090415 349  1.7+  0.5+    090429 349  1.1-  0.3-    090708 E16  1.1+  0.9-  
090415 349 (2.4+  0.2-)   090429 349  0.6-  0.8-    090708 E16  0.4+  0.3-  
090417 367  0.3+  1.8+    090429 349  0.8-  0.5-    090714 322  0.6-  0.4+  
090417 367  1.3-  1.6+    090430 349 (0.1-  2.1-)   090719 D90  0.2+  0.3+  
090417 367  0.2-  0.3+    090430 349  0.3+  1.6-    090719 D90  0.1+  1.7+  
090418 D90  1.0+  0.0     090501 349  0.3-  1.7-    090720 D90 (1.2+  3.2-) 
090418 D90  0.6+  0.2-    090501 349  1.1-  0.8-    090720 D90 (0.1-  6.3-) 
090418 D90  0.3+  0.7+    090501 349  1.3-  0.5-    090720 D90  0.1-  1.0-  
090418 D90  0.9-  1.1+    090502 D90  0.4+  0.5+                            
090418 D90  0.5-  0.7+    090502 D90  0.3+  0.5+                            

NAKANO
         **** Don't distribute anyone except personal use only ****
                (C) Copyright 2009 OAA/ComputingSection
write mail from CFAD0::NAKANO on 2009-07-29 07:36:14(JST).
 
    C/2009 G1 (STEREO)
T 2009 Apr. 16.50053 TT                                 Nakano
q   1.1286982            (2000.0)            P               Q
z  +0.0022420      Peri.  175.43804     +0.52942534     -0.22893403
 +/-0.0000595      Node   120.63315     -0.80529879     +0.16724913
e   0.9974695      Incl.  108.31008     -0.26683828     -0.95896660
From 100 observations 2009 Apr. 9-June 7.
NAKANO
         **** Don't distribute anyone except personal use only ****
                (C) Copyright 2009 OAA/ComputingSection
write mail from CFAD0::NAKANO on 2009-06-20 01:00:31(JST).
◎C/2009 G1の軌道と予報位置

 引き続き,上尾(門田健一),芸西(関勉),守山(井狩康一),八束(安部
裕史)の諸氏から観測が報告された.天文ガイド6月号に続く,CCD全光度が4月
22日と26日に10.4等,27日に10.5等,28日に10.7等(門田),11.8等(安部),
29日に10.8等,30日に10.9等,5月1日に10.7等(門田)と報告されている.
彗星は,間もなく,観測できなくなる.

    C/2009 G1 (STEREO)
T 2009 Apr. 16.56324 TT                                 Nakano
q   1.1292079            (2000.0)            P               Q
                   Peri.  175.51063     +0.52944888     -0.22964616
                   Node   120.65378     -0.80490466     +0.16810746
e   1.0            Incl.  108.31876     -0.26797830     -0.95864619
From 71 observations 2009 Apr. 9-May 2.

2009/        α  (2000) δ      △      r    Daily motion  Elong. Phase    m1   天文薄明開始時
 27h JST    h  m       。  ,        AU      AU      ,     。     。      。      等     h。    A 。 
May   5   23 32.07  -19 27.6    1.268   1.171    73.1/144    60.6   48.7    9.2    -1.3  293.2
      6   23 35.15  -20 26.4    1.253   1.175    74.8/144    61.5   49.0    9.2    -1.9  293.9
      7   23 38.33  -21 26.5    1.238   1.180    76.6/144    62.3   49.3    9.2    -2.7  294.6
      8   23 41.61  -22 28.0    1.224   1.184    78.3/143    63.2   49.5    9.2    -3.4  295.3
      9   23 45.01  -23 30.7    1.210   1.189    80.1/143    64.1   49.8    9.2    -4.2  296.1
     10   23 48.52  -24 34.8    1.196   1.195    81.9/143    64.9   50.0    9.2    -5.0  296.8
     11   23 52.15  -25 40.2    1.183   1.200    83.7/143    65.8   50.2    9.2    -5.8  297.5
     12   23 55.92  -26 46.8    1.171   1.205    85.5/143    66.6   50.3    9.2    -6.6  298.3
     13   23 59.82  -27 54.7    1.158   1.211    87.3/143    67.5   50.4    9.2    -7.5  299.1
     14   00 03.88  -29 03.8    1.147   1.217    89.1/142    68.3   50.5    9.1    -8.4  299.8
     15   00 08.08  -30 14.0    1.135   1.223    90.8/142    69.2   50.6    9.1    -9.4  300.6
     16   00 12.45  -31 25.3    1.125   1.229    92.5/142    70.0   50.7    9.2   -10.3  301.4
     17   00 17.00  -32 37.6    1.115   1.235    94.2/141    70.9   50.7    9.2   -11.3  302.2
     18   00 21.73  -33 50.7    1.105   1.242    95.8/141    71.7   50.7    9.2   -12.4  303.0
     19   00 26.65  -35 04.6    1.096   1.248    97.3/140    72.5   50.6    9.2   -13.4  303.8
     20   00 31.78  -36 19.2    1.088   1.255    98.7/140    73.3   50.6    9.2   -14.5  304.6
     21   00 37.13  -37 34.3    1.081   1.262   100.1/139    74.1   50.5    9.2   -15.6  305.4
     22   00 42.71  -38 49.7    1.074   1.269   101.3/139    74.9   50.4    9.2   -16.7  306.2
     23   00 48.53  -40 05.3    1.068   1.277   102.4/138    75.7   50.2    9.2   -17.8  307.0
     24   00 54.61  -41 20.9    1.062   1.284   103.4/137    76.4   50.1    9.2   -19.0  307.8
     25   01 00.95  -42 36.2    1.058   1.291   104.2/137    77.1   49.9    9.2   -20.1  308.6
     26   01 07.58  -43 51.2    1.054   1.299   104.9/136    77.8   49.7    9.3   -21.3  309.4
     27   01 14.50  -45 05.4    1.051   1.307   105.4/135    78.5   49.5    9.3   -22.5  310.3
     28   01 21.73  -46 18.8    1.049   1.315   105.8/134    79.2   49.2    9.3   -23.7  311.1
     29   01 29.28  -47 31.0    1.047   1.323   106.0/133    79.8   49.0    9.3   -24.9  311.9
     30   01 37.15  -48 41.7    1.047   1.331   106.0/131    80.4   48.7    9.3   -26.1  312.7
     31   01 45.37  -49 50.8    1.047   1.339   105.9/130    81.0   48.4    9.4   -27.3  313.5
June  1   01 53.94  -50 57.9    1.048   1.348   105.5/129    81.6   48.1    9.4   -28.5  314.3
                    m1 =  8.0 + 5 log △ + 10.0 log r
NAKANO
         **** Don't distribute anyone except personal use only ****
                (C) Copyright 2009 OAA/ComputingSection
write mail from CFAD0::NAKANO on 2009-05-05 02:59:14(JST).
 
◎C/2009 G1の軌道と予報位置

 上尾の門田健一氏は,4月22日に明け方の低空にあるこの彗星の観測に成功
しました.彗星のCCD全光度は,10.4等でした.彗星は,北半球からは,間も
なく観測できなくなります.

    C/2009 G1 (STEREO)
T 2009 Apr. 16.55296 TT                                 Nakano
q   1.1292305            (2000.0)            P               Q
                   Peri.  175.49878     +0.52950901     -0.22948653
                   Node   120.65488     -0.80493258     +0.16796881
e   1.0            Incl.  108.31554     -0.26777555     -0.95870872
From 35 observations 2009 Apr. 9-22.

